User: anonymous   Login
Location: Bowman Observatory
(41.0326°N, 73.6210°W)
Time: 21:36:09
(UTC-05:00)
Language:

Cosmos 2297 - Orbit

View from above orbital plane
View from above orbital plane
View from above satellite
View from above satellite

Ground track
Ground track

The orbit data is extracted from the following two-line orbital elements,

1 23404U 94077A   17052.78840109  .00000240  00000-0  15230-3 0  9992
2 23404  71.0157 174.5449 0016998 319.0672  40.9173 14.13497639147767
Epoch (UTC): 21 February 2017 18:55:17
Eccentricity: 0.0016998
inclination: 71.0157°
perigee height: 835 km
apogee height: 860 km
right ascension of ascending node: 174.5449°
argument of perigee: 319.0672°
revolutions per day: 14.13497639
mean anomaly at epoch: 40.9173°
orbit number at epoch: 14776

The dashed part of the orbit path shows where the satellite is in the earth's shadow,  

DLR